Unsubscribe Automatically:

[TLELIST] 0 HST 1 20580U 90037B 26262.06053281 .00004982 00000-0 15075-3 0 9991 2 20580 28.4729 158.5121 0001930 104.6713 255.4097 15.31690777802971 0 ISS (ZARYA) 1 25544U 98067A 26262.17494103 .00006053 00000-0 11723-3 0 9998 2 25544 51.6309 194.9288 0004806 156.4521 203.6688 15.49173263586327 0 CXO 1 25867U 99040B 26261.93394925 .00000876 00000-0 00000-0 0 9992 2 25867 57.4406 114.2349 7690176 309.3586 0.3765 0.37798297 17674